owner,sensor,date,latitude,longitude,vertical_datum,mass_concentration_of_oxygen_in_sea_water,qcFlag 
DISL,ioos:station:DISL:DISL:1,2015-08-01T00:00:00Z,30.2513,-88.0778,1.973,7.47,1111122 
DISL,ioos:station:DISL:DISL:1,2015-08-01T00:30:00Z,30.2513,-88.0778,1.959,7.45,1111122 
DISL,ioos:station:DISL:DISL:1,2015-08-01T01:00:00Z,30.2513,-88.0778,1.917,7.51,1111122 
DISL,ioos:station:DISL:DISL:1,2015-08-01T01:30:00Z,30.2513,-88.0778,1.881,7.71,1111122 
DISL,ioos:station:DISL:DISL:1,2015-08-01T02:00:00Z,30.2513,-88.0778,1.857,7.82,1111122 
DISL,ioos:station:DISL:DISL:1,2015-08-01T02:30:00Z,30.2513,-88.0778,1.852,7.73,1111122 
DISL,ioos:station:DISL:DISL:1,2015-08-01T03:00:00Z,30.2513,-88.0778,1.842,7.53,1111122 
DISL,ioos:station:DISL:DISL:1,2015-08-01T03:30:00Z,30.2513,-88.0778,1.853,7.63,1111122 
DISL,ioos:station:DISL:DISL:1,2015-08-01T04:00:00Z,30.2513,-88.0778,1.857,7.65,1111122 
DISL,ioos:station:DISL:DISL:1,2015-08-01T04:30:00Z,30.2513,-88.0778,1.843,7.42,1111122 
DISL,ioos:station:DISL:DISL:1,2015-08-01T05:00:00Z,30.2513,-88.0778,1.87,7.32,1111122 
DISL,ioos:station:DISL:DISL:1,2015-08-01T05:30:00Z,30.2513,-88.0778,1.883,6.98,1111122 
DISL,ioos:station:DISL:DISL:1,2015-08-01T06:00:00Z,30.2513,-88.0778,1.89,6.1,1111122 
DISL,ioos:station:DISL:DISL:1,2015-08-01T06:30:00Z,30.2513,-88.0778,1.906,5.9,1111122 
DISL,ioos:station:DISL:DISL:1,2015-08-01T07:00:00Z,30.2513,-88.0778,1.96,6.0,1111122 
DISL,ioos:station:DISL:DISL:1,2015-08-01T07:30:00Z,30.2513,-88.0778,1.965,5.94,1111122 
DISL,ioos:station:DISL:DISL:1,2015-08-01T08:00:00Z,30.2513,-88.0778,2.004,5.94,1111122 
DISL,ioos:station:DISL:DISL:1,2015-08-01T08:30:00Z,30.2513,-88.0778,2.015,6.56,1111122 
DISL,ioos:station:DISL:DISL:1,2015-08-01T09:00:00Z,30.2513,-88.0778,1.992,6.63,1111122 
DISL,ioos:station:DISL:DISL:1,2015-08-01T09:30:00Z,30.2513,-88.0778,2.036,5.98,1111122 
DISL,ioos:station:DISL:DISL:1,2015-08-01T10:00:00Z,30.2513,-88.0778,2.033,5.34,1111122 
DISL,ioos:station:DISL:DISL:1,2015-08-01T10:30:00Z,30.2513,-88.0778,2.075,5.07,1111122 
DISL,ioos:station:DISL:DISL:1,2015-08-01T11:00:00Z,30.2513,-88.0778,2.113,4.64,1111122 
DISL,ioos:station:DISL:DISL:1,2015-08-01T11:30:00Z,30.2513,-88.0778,2.106,4.76,1111122 
DISL,ioos:station:DISL:DISL:1,2015-08-01T12:00:00Z,30.2513,-88.0778,2.125,4.97,1111122 
DISL,ioos:station:DISL:DISL:1,2015-08-01T12:30:00Z,30.2513,-88.0778,2.184,4.95,1111122 
DISL,ioos:station:DISL:DISL:1,2015-08-01T13:00:00Z,30.2513,-88.0778,2.185,4.94,1111122 
DISL,ioos:station:DISL:DISL:1,2015-08-01T13:30:00Z,30.2513,-88.0778,2.215,5.06,1111122 
DISL,ioos:station:DISL:DISL:1,2015-08-01T14:00:00Z,30.2513,-88.0778,2.255,5.02,1111122 
DISL,ioos:station:DISL:DISL:1,2015-08-01T14:30:00Z,30.2513,-88.0778,2.272,4.99,1111122 
DISL,ioos:station:DISL:DISL:1,2015-08-01T15:00:00Z,30.2513,-88.0778,2.26,4.98,1111122 
DISL,ioos:station:DISL:DISL:1,2015-08-01T15:30:00Z,30.2513,-88.0778,2.308,4.92,1111122 
DISL,ioos:station:DISL:DISL:1,2015-08-01T16:00:00Z,30.2513,-88.0778,2.295,5.06,1111122 
DISL,ioos:station:DISL:DISL:1,2015-08-01T16:30:00Z,30.2513,-88.0778,2.296,4.98,1111122 
DISL,ioos:station:DISL:DISL:1,2015-08-01T17:00:00Z,30.2513,-88.0778,2.316,5.37,1111122 
DISL,ioos:station:DISL:DISL:1,2015-08-01T17:30:00Z,30.2513,-88.0778,2.304,6.46,1111122 
DISL,ioos:station:DISL:DISL:1,2015-08-01T18:00:00Z,30.2513,-88.0778,2.338,6.91,1111122 
DISL,ioos:station:DISL:DISL:1,2015-08-01T18:30:00Z,30.2513,-88.0778,2.271,6.78,1111122 
DISL,ioos:station:DISL:DISL:1,2015-08-01T19:00:00Z,30.2513,-88.0778,2.269,7.0,1111122 
DISL,ioos:station:DISL:DISL:1,2015-08-01T19:30:00Z,30.2513,-88.0778,2.226,7.08,1111122 
DISL,ioos:station:DISL:DISL:1,2015-08-01T20:00:00Z,30.2513,-88.0778,2.204,7.05,1111122 
DISL,ioos:station:DISL:DISL:1,2015-08-01T20:30:00Z,30.2513,-88.0778,2.168,7.22,1111122 
DISL,ioos:station:DISL:DISL:1,2015-08-01T21:00:00Z,30.2513,-88.0778,2.135,7.25,1111122 
DISL,ioos:station:DISL:DISL:1,2015-08-01T21:30:00Z,30.2513,-88.0778,2.102,7.1,1111122 
DISL,ioos:station:DISL:DISL:1,2015-08-01T22:00:00Z,30.2513,-88.0778,2.086,7.27,1111122 
DISL,ioos:station:DISL:DISL:1,2015-08-01T22:30:00Z,30.2513,-88.0778,2.059,8.64,1111122 
DISL,ioos:station:DISL:DISL:1,2015-08-01T23:00:00Z,30.2513,-88.0778,2.064,7.63,1111122 
DISL,ioos:station:DISL:DISL:1,2015-08-01T23:30:00Z,30.2513,-88.0778,2.012,7.44,1111122 
DISL,ioos:station:DISL:DISL:1,2015-08-02T00:00:00Z,30.2513,-88.0778,1.993,7.62,1111122 
DISL,ioos:station:DISL:DISL:1,2015-08-02T00:30:00Z,30.2513,-88.0778,1.973,7.77,1111122 
DISL,ioos:station:DISL:DISL:1,2015-08-02T01:00:00Z,30.2513,-88.0778,1.936,7.83,1111122 
DISL,ioos:station:DISL:DISL:1,2015-08-02T01:30:00Z,30.2513,-88.0778,1.92,7.92,1111122 
DISL,ioos:station:DISL:DISL:1,2015-08-02T02:00:00Z,30.2513,-88.0778,1.904,7.71,1111122 
DISL,ioos:station:DISL:DISL:1,2015-08-02T02:30:00Z,30.2513,-88.0778,1.897,7.58,1111122 
DISL,ioos:station:DISL:DISL:1,2015-08-02T03:00:00Z,30.2513,-88.0778,1.904,7.65,1111122 
DISL,ioos:station:DISL:DISL:1,2015-08-02T03:30:00Z,30.2513,-88.0778,1.895,7.21,1111122 
DISL,ioos:station:DISL:DISL:1,2015-08-02T04:00:00Z,30.2513,-88.0778,1.889,7.6,1111122 
DISL,ioos:station:DISL:DISL:1,2015-08-02T04:30:00Z,30.2513,-88.0778,1.89,7.34,1111122 
DISL,ioos:station:DISL:DISL:1,2015-08-02T05:00:00Z,30.2513,-88.0778,1.906,7.42,1111122 
DISL,ioos:station:DISL:DISL:1,2015-08-02T05:30:00Z,30.2513,-88.0778,1.918,7.39,1111122 
DISL,ioos:station:DISL:DISL:1,2015-08-02T06:00:00Z,30.2513,-88.0778,1.928,7.21,1111122 
DISL,ioos:station:DISL:DISL:1,2015-08-02T06:30:00Z,30.2513,-88.0778,1.951,6.08,1111122 
DISL,ioos:station:DISL:DISL:1,2015-08-02T07:00:00Z,30.2513,-88.0778,1.976,6.08,1111122 
DISL,ioos:station:DISL:DISL:1,2015-08-02T07:30:00Z,30.2513,-88.0778,1.953,6.07,1111122 
DISL,ioos:station:DISL:DISL:1,2015-08-02T08:00:00Z,30.2513,-88.0778,1.988,6.25,1111122 
DISL,ioos:station:DISL:DISL:1,2015-08-02T08:30:00Z,30.2513,-88.0778,1.954,6.54,1111122 
DISL,ioos:station:DISL:DISL:1,2015-08-02T09:00:00Z,30.2513,-88.0778,2.012,6.63,1111122 
DISL,ioos:station:DISL:DISL:1,2015-08-02T09:30:00Z,30.2513,-88.0778,2.027,6.15,1111122 
DISL,ioos:station:DISL:DISL:1,2015-08-02T10:00:00Z,30.2513,-88.0778,2.058,5.89,1111122 
DISL,ioos:station:DISL:DISL:1,2015-08-02T10:30:00Z,30.2513,-88.0778,2.054,5.6,1111122 
DISL,ioos:station:DISL:DISL:1,2015-08-02T11:00:00Z,30.2513,-88.0778,2.061,4.96,1111122 
DISL,ioos:station:DISL:DISL:1,2015-08-02T11:30:00Z,30.2513,-88.0778,2.071,4.8,1111122 
DISL,ioos:station:DISL:DISL:1,2015-08-02T12:00:00Z,30.2513,-88.0778,2.092,4.58,1111122 
DISL,ioos:station:DISL:DISL:1,2015-08-02T12:30:00Z,30.2513,-88.0778,2.148,4.66,1111122 
DISL,ioos:station:DISL:DISL:1,2015-08-02T13:00:00Z,30.2513,-88.0778,2.15,4.64,1111122 
DISL,ioos:station:DISL:DISL:1,2015-08-02T13:30:00Z,30.2513,-88.0778,2.174,4.6,1111122 
DISL,ioos:station:DISL:DISL:1,2015-08-02T14:00:00Z,30.2513,-88.0778,2.175,4.7,1111122 
DISL,ioos:station:DISL:DISL:1,2015-08-02T14:30:00Z,30.2513,-88.0778,2.204,5.14,1111122 
DISL,ioos:station:DISL:DISL:1,2015-08-02T15:00:00Z,30.2513,-88.0778,2.222,5.2,1111122 
DISL,ioos:station:DISL:DISL:1,2015-08-02T15:30:00Z,30.2513,-88.0778,2.282,5.2,1111122 
DISL,ioos:station:DISL:DISL:1,2015-08-02T16:00:00Z,30.2513,-88.0778,2.263,5.26,1111122 
DISL,ioos:station:DISL:DISL:1,2015-08-02T16:30:00Z,30.2513,-88.0778,2.29,5.2,1111122 
DISL,ioos:station:DISL:DISL:1,2015-08-02T17:00:00Z,30.2513,-88.0778,2.272,5.33,1111122 
DISL,ioos:station:DISL:DISL:1,2015-08-02T17:30:00Z,30.2513,-88.0778,2.289,5.72,1111122 
DISL,ioos:station:DISL:DISL:1,2015-08-02T18:00:00Z,30.2513,-88.0778,2.296,6.51,1111122 
DISL,ioos:station:DISL:DISL:1,2015-08-02T18:30:00Z,30.2513,-88.0778,2.286,6.09,1111122 
DISL,ioos:station:DISL:DISL:1,2015-08-02T19:00:00Z,30.2513,-88.0778,2.303,6.85,1111122 
DISL,ioos:station:DISL:DISL:1,2015-08-02T19:30:00Z,30.2513,-88.0778,2.282,6.95,1111122 
DISL,ioos:station:DISL:DISL:1,2015-08-02T20:00:00Z,30.2513,-88.0778,2.265,6.81,1111122 
DISL,ioos:station:DISL:DISL:1,2015-08-02T20:30:00Z,30.2513,-88.0778,2.232,7.1,1111122 
DISL,ioos:station:DISL:DISL:1,2015-08-02T21:00:00Z,30.2513,-88.0778,2.238,6.93,1111122 
DISL,ioos:station:DISL:DISL:1,2015-08-02T21:30:00Z,30.2513,-88.0778,2.187,7.35,1111122 
DISL,ioos:station:DISL:DISL:1,2015-08-02T22:00:00Z,30.2513,-88.0778,2.161,7.36,1111122 
DISL,ioos:station:DISL:DISL:1,2015-08-02T22:30:00Z,30.2513,-88.0778,2.133,7.55,1111122 
DISL,ioos:station:DISL:DISL:1,2015-08-02T23:00:00Z,30.2513,-88.0778,2.105,7.21,1111122 
DISL,ioos:station:DISL:DISL:1,2015-08-02T23:30:00Z,30.2513,-88.0778,2.073,6.92,1111122 
DISL,ioos:station:DISL:DISL:1,2015-08-03T00:00:00Z,30.2513,-88.0778,2.057,6.75,1111122 
DISL,ioos:station:DISL:DISL:1,2015-08-03T00:30:00Z,30.2513,-88.0778,2.035,8.02,1111122 
DISL,ioos:station:DISL:DISL:1,2015-08-03T01:00:00Z,30.2513,-88.0778,2.02,7.63,1111122 
DISL,ioos:station:DISL:DISL:1,2015-08-03T01:30:00Z,30.2513,-88.0778,2.014,7.79,1111122 
DISL,ioos:station:DISL:DISL:1,2015-08-03T02:00:00Z,30.2513,-88.0778,2.018,8.08,1111122 
DISL,ioos:station:DISL:DISL:1,2015-08-03T02:30:00Z,30.2513,-88.0778,2.015,7.94,1111122 
DISL,ioos:station:DISL:DISL:1,2015-08-03T03:00:00Z,30.2513,-88.0778,1.991,7.49,1111122 
DISL,ioos:station:DISL:DISL:1,2015-08-03T03:30:00Z,30.2513,-88.0778,1.988,7.03,1111122 
DISL,ioos:station:DISL:DISL:1,2015-08-03T04:00:00Z,30.2513,-88.0778,1.992,7.08,1111122 
DISL,ioos:station:DISL:DISL:1,2015-08-03T04:30:00Z,30.2513,-88.0778,1.997,7.25,1111122 
DISL,ioos:station:DISL:DISL:1,2015-08-03T05:00:00Z,30.2513,-88.0778,2.006,6.71,1111122 
DISL,ioos:station:DISL:DISL:1,2015-08-03T05:30:00Z,30.2513,-88.0778,1.992,6.99,1111122 
DISL,ioos:station:DISL:DISL:1,2015-08-03T06:00:00Z,30.2513,-88.0778,2.01,6.46,1111122 
DISL,ioos:station:DISL:DISL:1,2015-08-03T06:30:00Z,30.2513,-88.0778,2.009,6.83,1111122 
DISL,ioos:station:DISL:DISL:1,2015-08-03T07:00:00Z,30.2513,-88.0778,2.03,6.2,1111122 
DISL,ioos:station:DISL:DISL:1,2015-08-03T07:30:00Z,30.2513,-88.0778,2.049,5.87,1111122 
DISL,ioos:station:DISL:DISL:1,2015-08-03T08:00:00Z,30.2513,-88.0778,2.041,6.04,1111122 
DISL,ioos:station:DISL:DISL:1,2015-08-03T08:30:00Z,30.2513,-88.0778,2.056,6.2,1111122 
DISL,ioos:station:DISL:DISL:1,2015-08-03T09:00:00Z,30.2513,-88.0778,2.056,6.0,1111122 
DISL,ioos:station:DISL:DISL:1,2015-08-03T09:30:00Z,30.2513,-88.0778,2.06,5.68,1111122 
DISL,ioos:station:DISL:DISL:1,2015-08-03T10:00:00Z,30.2513,-88.0778,2.048,5.33,1111122 
DISL,ioos:station:DISL:DISL:1,2015-08-03T10:30:00Z,30.2513,-88.0778,2.057,5.67,1111122 
DISL,ioos:station:DISL:DISL:1,2015-08-03T11:00:00Z,30.2513,-88.0778,2.06,5.61,1111122 
DISL,ioos:station:DISL:DISL:1,2015-08-03T11:30:00Z,30.2513,-88.0778,2.031,5.61,1111122 
DISL,ioos:station:DISL:DISL:1,2015-08-03T12:00:00Z,30.2513,-88.0778,2.051,5.22,1111122 
DISL,ioos:station:DISL:DISL:1,2015-08-03T12:30:00Z,30.2513,-88.0778,2.079,5.38,1111122 
DISL,ioos:station:DISL:DISL:1,2015-08-03T13:00:00Z,30.2513,-88.0778,2.088,6.42,1111122 
DISL,ioos:station:DISL:DISL:1,2015-08-03T13:30:00Z,30.2513,-88.0778,2.081,6.53,1111122 
DISL,ioos:station:DISL:DISL:1,2015-08-03T14:00:00Z,30.2513,-88.0778,2.096,5.88,1111122 
DISL,ioos:station:DISL:DISL:1,2015-08-03T14:30:00Z,30.2513,-88.0778,2.107,5.84,1111122 
DISL,ioos:station:DISL:DISL:1,2015-08-03T15:00:00Z,30.2513,-88.0778,2.114,5.53,1111122 
DISL,ioos:station:DISL:DISL:1,2015-08-03T15:30:00Z,30.2513,-88.0778,2.141,5.42,1111122 
DISL,ioos:station:DISL:DISL:1,2015-08-03T16:00:00Z,30.2513,-88.0778,2.128,4.92,1111122 
DISL,ioos:station:DISL:DISL:1,2015-08-03T16:30:00Z,30.2513,-88.0778,2.139,4.97,1111122 
DISL,ioos:station:DISL:DISL:1,2015-08-03T17:00:00Z,30.2513,-88.0778,2.135,4.82,1111122 
DISL,ioos:station:DISL:DISL:1,2015-08-03T17:30:00Z,30.2513,-88.0778,2.134,4.99,1111122 
DISL,ioos:station:DISL:DISL:1,2015-08-03T18:00:00Z,30.2513,-88.0778,2.136,4.82,1111122 
DISL,ioos:station:DISL:DISL:1,2015-08-03T18:30:00Z,30.2513,-88.0778,2.158,4.82,1111122 
DISL,ioos:station:DISL:DISL:1,2015-08-03T19:00:00Z,30.2513,-88.0778,2.134,5.36,1111122 
DISL,ioos:station:DISL:DISL:1,2015-08-03T19:30:00Z,30.2513,-88.0778,2.117,5.59,1111122 
DISL,ioos:station:DISL:DISL:1,2015-08-03T20:00:00Z,30.2513,-88.0778,2.152,6.32,1111122 
DISL,ioos:station:DISL:DISL:1,2015-08-03T20:30:00Z,30.2513,-88.0778,2.14,6.33,1111122 
DISL,ioos:station:DISL:DISL:1,2015-08-03T21:00:00Z,30.2513,-88.0778,2.158,7.01,1111122 
DISL,ioos:station:DISL:DISL:1,2015-08-03T21:30:00Z,30.2513,-88.0778,2.101,7.02,1111122 
DISL,ioos:station:DISL:DISL:1,2015-08-03T22:00:00Z,30.2513,-88.0778,2.105,7.19,1111122 
DISL,ioos:station:DISL:DISL:1,2015-08-03T22:30:00Z,30.2513,-88.0778,2.071,7.2,1111122 
DISL,ioos:station:DISL:DISL:1,2015-08-03T23:00:00Z,30.2513,-88.0778,2.069,7.01,1111122 
DISL,ioos:station:DISL:DISL:1,2015-08-03T23:30:00Z,30.2513,-88.0778,2.054,6.61,1111122 
DISL,ioos:station:DISL:DISL:1,2015-08-04T00:00:00Z,30.2513,-88.0778,2.037,6.96,1111122 
DISL,ioos:station:DISL:DISL:1,2015-08-04T00:30:00Z,30.2513,-88.0778,2.016,6.34,1111122 
DISL,ioos:station:DISL:DISL:1,2015-08-04T01:00:00Z,30.2513,-88.0778,2.014,6.23,1111122 
DISL,ioos:station:DISL:DISL:1,2015-08-04T01:30:00Z,30.2513,-88.0778,2.007,6.36,1111122 
DISL,ioos:station:DISL:DISL:1,2015-08-04T02:00:00Z,30.2513,-88.0778,2.0,6.12,1111122 
DISL,ioos:station:DISL:DISL:1,2015-08-04T02:30:00Z,30.2513,-88.0778,1.979,6.23,1111122 
DISL,ioos:station:DISL:DISL:1,2015-08-04T03:00:00Z,30.2513,-88.0778,1.977,6.24,1111122 
DISL,ioos:station:DISL:DISL:1,2015-08-04T03:30:00Z,30.2513,-88.0778,1.983,6.37,1111122 
DISL,ioos:station:DISL:DISL:1,2015-08-04T04:00:00Z,30.2513,-88.0778,1.973,5.96,1111122 
DISL,ioos:station:DISL:DISL:1,2015-08-04T04:30:00Z,30.2513,-88.0778,1.962,5.67,1111122 
DISL,ioos:station:DISL:DISL:1,2015-08-04T05:00:00Z,30.2513,-88.0778,1.957,5.1,1111122 
DISL,ioos:station:DISL:DISL:1,2015-08-04T05:30:00Z,30.2513,-88.0778,1.97,4.8,1111122 
DISL,ioos:station:DISL:DISL:1,2015-08-04T06:00:00Z,30.2513,-88.0778,1.954,4.75,1111122 
DISL,ioos:station:DISL:DISL:1,2015-08-04T06:30:00Z,30.2513,-88.0778,1.959,5.29,1111122 
DISL,ioos:station:DISL:DISL:1,2015-08-04T07:00:00Z,30.2513,-88.0778,1.958,4.98,1111122 
DISL,ioos:station:DISL:DISL:1,2015-08-04T07:30:00Z,30.2513,-88.0778,1.962,5.73,1111122 
DISL,ioos:station:DISL:DISL:1,2015-08-04T08:00:00Z,30.2513,-88.0778,1.971,5.63,1111122 
DISL,ioos:station:DISL:DISL:1,2015-08-04T08:30:00Z,30.2513,-88.0778,1.988,4.77,1111122 
DISL,ioos:station:DISL:DISL:1,2015-08-04T09:00:00Z,30.2513,-88.0778,1.984,4.32,1111122 
DISL,ioos:station:DISL:DISL:1,2015-08-04T09:30:00Z,30.2513,-88.0778,1.996,4.92,1111122 
DISL,ioos:station:DISL:DISL:1,2015-08-04T10:00:00Z,30.2513,-88.0778,1.996,4.62,1111122 
DISL,ioos:station:DISL:DISL:1,2015-08-04T10:30:00Z,30.2513,-88.0778,2.009,4.85,1111122 
DISL,ioos:station:DISL:DISL:1,2015-08-04T11:00:00Z,30.2513,-88.0778,1.999,5.08,1111122 
DISL,ioos:station:DISL:DISL:1,2015-08-04T11:30:00Z,30.2513,-88.0778,1.994,5.16,1111122 
DISL,ioos:station:DISL:DISL:1,2015-08-04T12:00:00Z,30.2513,-88.0778,1.996,5.37,1111122 
DISL,ioos:station:DISL:DISL:1,2015-08-04T12:30:00Z,30.2513,-88.0778,1.983,5.08,1111122 
DISL,ioos:station:DISL:DISL:1,2015-08-04T13:00:00Z,30.2513,-88.0778,2.001,4.76,1111122 
DISL,ioos:station:DISL:DISL:1,2015-08-04T13:30:00Z,30.2513,-88.0778,1.999,5.68,1111122 
DISL,ioos:station:DISL:DISL:1,2015-08-04T14:00:00Z,30.2513,-88.0778,1.997,5.85,1111122 
DISL,ioos:station:DISL:DISL:1,2015-08-04T14:30:00Z,30.2513,-88.0778,2.01,5.63,1111122 
DISL,ioos:station:DISL:DISL:1,2015-08-04T15:00:00Z,30.2513,-88.0778,2.027,5.75,1111122 
DISL,ioos:station:DISL:DISL:1,2015-08-04T15:30:00Z,30.2513,-88.0778,2.018,5.17,1111122 
DISL,ioos:station:DISL:DISL:1,2015-08-04T16:00:00Z,30.2513,-88.0778,2.014,5.47,1111122 
DISL,ioos:station:DISL:DISL:1,2015-08-04T16:30:00Z,30.2513,-88.0778,2.009,5.07,1111122 
DISL,ioos:station:DISL:DISL:1,2015-08-04T17:00:00Z,30.2513,-88.0778,2.04,5.36,1111122 
DISL,ioos:station:DISL:DISL:1,2015-08-04T17:30:00Z,30.2513,-88.0778,2.034,5.05,1111122 
DISL,ioos:station:DISL:DISL:1,2015-08-04T18:00:00Z,30.2513,-88.0778,2.016,5.89,1111122 
DISL,ioos:station:DISL:DISL:1,2015-08-04T18:30:00Z,30.2513,-88.0778,2.029,4.23,1111122 
DISL,ioos:station:DISL:DISL:1,2015-08-04T19:00:00Z,30.2513,-88.0778,2.022,6.42,1111122 
DISL,ioos:station:DISL:DISL:1,2015-08-04T19:30:00Z,30.2513,-88.0778,2.009,6.18,1111122 
DISL,ioos:station:DISL:DISL:1,2015-08-04T20:00:00Z,30.2513,-88.0778,2.004,6.34,1111122 
DISL,ioos:station:DISL:DISL:1,2015-08-04T20:30:00Z,30.2513,-88.0778,2.019,6.12,1111122 
DISL,ioos:station:DISL:DISL:1,2015-08-04T21:00:00Z,30.2513,-88.0778,1.988,5.75,1111122 
DISL,ioos:station:DISL:DISL:1,2015-08-04T21:30:00Z,30.2513,-88.0778,2.028,7.18,1111122 
DISL,ioos:station:DISL:DISL:1,2015-08-04T22:00:00Z,30.2513,-88.0778,2.016,8.72,1111122 
DISL,ioos:station:DISL:DISL:1,2015-08-04T22:30:00Z,30.2513,-88.0778,2.032,8.38,1111122 
DISL,ioos:station:DISL:DISL:1,2015-08-04T23:00:00Z,30.2513,-88.0778,2.008,8.16,1111122 
DISL,ioos:station:DISL:DISL:1,2015-08-04T23:30:00Z,30.2513,-88.0778,2.013,7.54,1111122 
DISL,ioos:station:DISL:DISL:1,2015-08-05T00:00:00Z,30.2513,-88.0778,1.995,6.91,1111122 
DISL,ioos:station:DISL:DISL:1,2015-08-05T00:30:00Z,30.2513,-88.0778,2.007,6.74,1111122 
DISL,ioos:station:DISL:DISL:1,2015-08-05T01:00:00Z,30.2513,-88.0778,2.007,6.41,1111122 
DISL,ioos:station:DISL:DISL:1,2015-08-05T01:30:00Z,30.2513,-88.0778,2.008,6.29,1111122 
DISL,ioos:station:DISL:DISL:1,2015-08-05T02:00:00Z,30.2513,-88.0778,1.994,6.4,1111122 
DISL,ioos:station:DISL:DISL:1,2015-08-05T02:30:00Z,30.2513,-88.0778,1.999,5.6,1111122 
DISL,ioos:station:DISL:DISL:1,2015-08-05T03:00:00Z,30.2513,-88.0778,1.989,5.01,1111122 
DISL,ioos:station:DISL:DISL:1,2015-08-05T03:30:00Z,30.2513,-88.0778,1.996,4.29,1111122 
DISL,ioos:station:DISL:DISL:1,2015-08-05T04:00:00Z,30.2513,-88.0778,2.005,3.99,1111122 
DISL,ioos:station:DISL:DISL:1,2015-08-05T04:30:00Z,30.2513,-88.0778,2.017,3.79,1111122 
DISL,ioos:station:DISL:DISL:1,2015-08-05T05:00:00Z,30.2513,-88.0778,1.996,4.07,1111122 
DISL,ioos:station:DISL:DISL:1,2015-08-05T05:30:00Z,30.2513,-88.0778,2.006,3.7,1111122 
DISL,ioos:station:DISL:DISL:1,2015-08-05T06:00:00Z,30.2513,-88.0778,1.999,4.0,1111122 
DISL,ioos:station:DISL:DISL:1,2015-08-05T06:30:00Z,30.2513,-88.0778,2.019,4.57,1111122 
DISL,ioos:station:DISL:DISL:1,2015-08-05T07:00:00Z,30.2513,-88.0778,2.036,4.54,1111122 
DISL,ioos:station:DISL:DISL:1,2015-08-05T07:30:00Z,30.2513,-88.0778,2.043,4.64,1111122 
DISL,ioos:station:DISL:DISL:1,2015-08-05T08:00:00Z,30.2513,-88.0778,2.048,4.68,1111122 
DISL,ioos:station:DISL:DISL:1,2015-08-05T08:30:00Z,30.2513,-88.0778,2.039,4.53,1111122 
DISL,ioos:station:DISL:DISL:1,2015-08-05T09:00:00Z,30.2513,-88.0778,2.08,5.48,1111122 
DISL,ioos:station:DISL:DISL:1,2015-08-05T09:30:00Z,30.2513,-88.0778,2.062,5.81,1111122 
DISL,ioos:station:DISL:DISL:1,2015-08-05T10:00:00Z,30.2513,-88.0778,2.072,5.28,1111122 
DISL,ioos:station:DISL:DISL:1,2015-08-05T10:30:00Z,30.2513,-88.0778,2.057,5.45,1111122 
DISL,ioos:station:DISL:DISL:1,2015-08-05T11:00:00Z,30.2513,-88.0778,2.043,5.42,1111122 
DISL,ioos:station:DISL:DISL:1,2015-08-05T11:30:00Z,30.2513,-88.0778,2.022,4.57,1111122 
DISL,ioos:station:DISL:DISL:1,2015-08-05T12:00:00Z,30.2513,-88.0778,2.002,5.3,1111122 
DISL,ioos:station:DISL:DISL:1,2015-08-05T12:30:00Z,30.2513,-88.0778,2.016,5.46,1111122 
DISL,ioos:station:DISL:DISL:1,2015-08-05T13:00:00Z,30.2513,-88.0778,1.966,4.52,1111122 
DISL,ioos:station:DISL:DISL:1,2015-08-05T13:30:00Z,30.2513,-88.0778,2.029,4.65,1111122 
DISL,ioos:station:DISL:DISL:1,2015-08-05T14:00:00Z,30.2513,-88.0778,2.0,5.29,1111122 
DISL,ioos:station:DISL:DISL:1,2015-08-05T14:30:00Z,30.2513,-88.0778,1.976,4.93,1111122 
DISL,ioos:station:DISL:DISL:1,2015-08-05T15:00:00Z,30.2513,-88.0778,1.992,4.96,1111122 
DISL,ioos:station:DISL:DISL:1,2015-08-05T15:30:00Z,30.2513,-88.0778,1.946,5.02,1111122 
DISL,ioos:station:DISL:DISL:1,2015-08-05T16:00:00Z,30.2513,-88.0778,1.956,5.0,1111122 
DISL,ioos:station:DISL:DISL:1,2015-08-05T16:30:00Z,30.2513,-88.0778,1.959,4.71,1111122 
DISL,ioos:station:DISL:DISL:1,2015-08-05T17:00:00Z,30.2513,-88.0778,1.946,4.81,1111122 
DISL,ioos:station:DISL:DISL:1,2015-08-05T17:30:00Z,30.2513,-88.0778,1.949,5.07,1111122 
DISL,ioos:station:DISL:DISL:1,2015-08-05T18:00:00Z,30.2513,-88.0778,1.938,5.09,1111122 
DISL,ioos:station:DISL:DISL:1,2015-08-05T18:30:00Z,30.2513,-88.0778,1.89,5.35,1111122 
DISL,ioos:station:DISL:DISL:1,2015-08-05T19:00:00Z,30.2513,-88.0778,1.917,5.24,1111122 
DISL,ioos:station:DISL:DISL:1,2015-08-05T19:30:00Z,30.2513,-88.0778,1.917,5.32,1111122 
DISL,ioos:station:DISL:DISL:1,2015-08-05T20:00:00Z,30.2513,-88.0778,1.938,5.29,1111122 
DISL,ioos:station:DISL:DISL:1,2015-08-05T20:30:00Z,30.2513,-88.0778,1.939,5.15,1111122 
DISL,ioos:station:DISL:DISL:1,2015-08-05T21:00:00Z,30.2513,-88.0778,1.944,5.46,1111122 
DISL,ioos:station:DISL:DISL:1,2015-08-05T21:30:00Z,30.2513,-88.0778,1.963,5.54,1111122 
DISL,ioos:station:DISL:DISL:1,2015-08-05T22:00:00Z,30.2513,-88.0778,1.959,5.19,1111122 
DISL,ioos:station:DISL:DISL:1,2015-08-05T22:30:00Z,30.2513,-88.0778,1.947,5.45,1111122 
DISL,ioos:station:DISL:DISL:1,2015-08-05T23:00:00Z,30.2513,-88.0778,1.998,5.63,1111122 
DISL,ioos:station:DISL:DISL:1,2015-08-05T23:30:00Z,30.2513,-88.0778,1.981,5.26,1111122 
DISL,ioos:station:DISL:DISL:1,2015-08-06T00:00:00Z,30.2513,-88.0778,1.973,5.69,1111122 
DISL,ioos:station:DISL:DISL:1,2015-08-06T00:30:00Z,30.2513,-88.0778,1.952,5.8,1111122 
DISL,ioos:station:DISL:DISL:1,2015-08-06T01:00:00Z,30.2513,-88.0778,1.935,6.52,1111122 
DISL,ioos:station:DISL:DISL:1,2015-08-06T01:30:00Z,30.2513,-88.0778,1.952,5.55,1111122 
DISL,ioos:station:DISL:DISL:1,2015-08-06T02:00:00Z,30.2513,-88.0778,1.951,4.77,1111122 
DISL,ioos:station:DISL:DISL:1,2015-08-06T02:30:00Z,30.2513,-88.0778,1.958,4.7,1111122 
DISL,ioos:station:DISL:DISL:1,2015-08-06T03:00:00Z,30.2513,-88.0778,1.988,4.5,1111122 
DISL,ioos:station:DISL:DISL:1,2015-08-06T03:30:00Z,30.2513,-88.0778,1.978,4.24,1111122 
DISL,ioos:station:DISL:DISL:1,2015-08-06T04:00:00Z,30.2513,-88.0778,1.992,4.1,1111122 
DISL,ioos:station:DISL:DISL:1,2015-08-06T04:30:00Z,30.2513,-88.0778,2.015,3.61,1111122 
DISL,ioos:station:DISL:DISL:1,2015-08-06T05:00:00Z,30.2513,-88.0778,2.041,3.76,1111122 
DISL,ioos:station:DISL:DISL:1,2015-08-06T05:30:00Z,30.2513,-88.0778,2.046,4.05,1111122 
DISL,ioos:station:DISL:DISL:1,2015-08-06T06:00:00Z,30.2513,-88.0778,2.058,4.14,1111122 
DISL,ioos:station:DISL:DISL:1,2015-08-06T06:30:00Z,30.2513,-88.0778,2.063,5.04,1111122 
DISL,ioos:station:DISL:DISL:1,2015-08-06T07:00:00Z,30.2513,-88.0778,2.05,5.26,1111122 
DISL,ioos:station:DISL:DISL:1,2015-08-06T07:30:00Z,30.2513,-88.0778,2.08,5.95,1111122 
DISL,ioos:station:DISL:DISL:1,2015-08-06T08:00:00Z,30.2513,-88.0778,2.084,6.09,1111122 
DISL,ioos:station:DISL:DISL:1,2015-08-06T08:30:00Z,30.2513,-88.0778,2.09,5.81,1111122 
DISL,ioos:station:DISL:DISL:1,2015-08-06T09:00:00Z,30.2513,-88.0778,2.091,5.61,1111122 
DISL,ioos:station:DISL:DISL:1,2015-08-06T09:30:00Z,30.2513,-88.0778,2.093,5.45,1111122 
DISL,ioos:station:DISL:DISL:1,2015-08-06T10:00:00Z,30.2513,-88.0778,2.063,5.69,1111122 
DISL,ioos:station:DISL:DISL:1,2015-08-06T10:30:00Z,30.2513,-88.0778,2.071,5.12,1111122 
DISL,ioos:station:DISL:DISL:1,2015-08-06T11:00:00Z,30.2513,-88.0778,2.091,4.63,1111122 
DISL,ioos:station:DISL:DISL:1,2015-08-06T11:30:00Z,30.2513,-88.0778,2.092,4.5,1111122 
DISL,ioos:station:DISL:DISL:1,2015-08-06T12:00:00Z,30.2513,-88.0778,2.054,4.7,1111122 
DISL,ioos:station:DISL:DISL:1,2015-08-06T12:30:00Z,30.2513,-88.0778,2.046,4.93,1111122 
DISL,ioos:station:DISL:DISL:1,2015-08-06T13:00:00Z,30.2513,-88.0778,2.03,5.02,1111122 
DISL,ioos:station:DISL:DISL:1,2015-08-06T13:30:00Z,30.2513,-88.0778,2.014,5.6,1111122 
DISL,ioos:station:DISL:DISL:1,2015-08-06T14:00:00Z,30.2513,-88.0778,2.002,5.7,1111122 
DISL,ioos:station:DISL:DISL:1,2015-08-06T14:30:00Z,30.2513,-88.0778,1.996,5.67,1111122 
DISL,ioos:station:DISL:DISL:1,2015-08-06T15:00:00Z,30.2513,-88.0778,1.972,5.9,1111122 
DISL,ioos:station:DISL:DISL:1,2015-08-06T15:30:00Z,30.2513,-88.0778,1.952,6.01,1111122 